�N����,����,�~����,�C��,���x,�C��,����,���ϕ���,�ő�u�ԕ���,�ő厞����,���˗�,�I�_���x,�n�����x,�ő啗���N��,DTYPE
"19/08/15","00:10",0.0,29.4,73.8,991.1,104.5,1.7,3.9,99.3,0.00,24.3,27.2,"00:08:32",1
"19/08/15","00:20",0.0,29.5,73.2,990.6,99.4,1.7,5.4,138.7,0.00,24.2,27.2,"00:17:44",1
"19/08/15","00:30",0.0,29.5,72.8,990.6,93.9,1.7,5.5,111.5,0.00,24.1,27.3,"00:21:12",1
"19/08/15","00:40",0.0,29.5,72.8,989.9,95.0,1.7,4.0,95.8,0.00,24.1,27.1,"00:39:52",1
"19/08/15","00:50",0.0,29.5,73.1,990.1,89.8,1.8,4.5,84.0,0.00,24.2,27.1,"00:49:28",1
"19/08/15","01:00",0.0,29.4,73.2,989.9,107.7,1.8,4.8,114.4,0.00,24.1,27.2,"00:58:48",1
"19/08/15","01:10",0.0,29.4,73.1,989.6,108.6,2.2,5.5,161.4,0.00,24.1,27.1,"01:08:56",1
"19/08/15","01:20",0.0,29.4,72.9,989.6,108.9,2.1,4.7,105.8,0.00,24.1,27.2,"01:11:44",1
"19/08/15","01:30",0.0,29.5,72.6,989.4,103.1,2.2,5.1,117.1,0.00,24.1,27.1,"01:28:24",1
"19/08/15","01:40",0.0,29.5,72.4,989.4,104.4,1.8,5.4,127.2,0.00,24.1,27.0,"01:32:00",1
"19/08/15","01:50",0.0,29.4,73.1,989.6,96.5,2.0,5.1,115.3,0.00,24.1,27.2,"01:49:20",1
"19/08/15","02:00",0.0,29.2,74.4,989.4,90.6,1.8,4.4,121.1,0.00,24.2,27.0,"01:50:08",1
"19/08/15","02:10",0.0,29.2,74.7,989.2,95.1,1.8,4.8,101.9,0.00,24.3,26.9,"02:04:40",1
"19/08/15","02:20",0.0,29.2,74.6,989.4,92.3,1.8,4.2,68.1,0.00,24.3,27.1,"02:10:08",1
"19/08/15","02:30",0.0,29.3,73.8,989.4,108.4,2.1,4.8,121.3,0.00,24.2,27.2,"02:23:36",1
"19/08/15","02:40",0.0,29.3,73.4,989.2,108.2,2.1,5.2,69.2,0.00,24.1,27.0,"02:36:48",1
"19/08/15","02:50",0.2,29.3,73.1,989.2,120.0,2.2,6.3,145.2,0.00,24.0,27.0,"02:48:08",1
"19/08/15","03:00",0.0,29.4,73.0,988.9,93.9,2.3,4.9,107.4,0.00,24.1,27.0,"02:57:20",1
"19/08/15","03:10",0.0,29.3,73.4,988.5,97.1,2.3,6.0,81.5,0.00,24.1,26.8,"03:00:02",1
"19/08/15","03:20",0.0,29.3,73.2,988.2,94.7,2.1,4.4,119.2,0.00,24.0,26.8,"03:14:16",1
"19/08/15","03:30",0.0,29.3,73.0,988.7,103.2,2.1,5.2,80.3,0.00,24.0,26.9,"03:20:56",1
"19/08/15","03:40",0.0,29.4,72.5,988.2,111.1,2.6,7.7,113.3,0.00,24.0,26.8,"03:34:16",1
"19/08/15","03:50",0.0,29.4,72.5,988.5,100.8,2.0,4.4,45.8,0.00,24.0,27.1,"03:40:48",1
"19/08/15","04:00",0.0,29.4,72.3,988.7,124.4,2.2,5.8,113.1,0.00,23.9,27.0,"03:50:32",1
"19/08/15","04:10",0.0,29.4,72.1,988.2,123.7,2.5,6.4,88.9,0.00,23.9,27.0,"04:05:28",1
"19/08/15","04:20",0.0,29.5,71.8,988.2,118.8,2.1,5.4,139.9,0.00,23.9,26.8,"04:14:32",1
"19/08/15","04:30",0.0,29.6,71.6,988.5,114.6,2.2,4.9,161.4,0.00,24.0,26.7,"04:27:44",1
"19/08/15","04:40",0.0,29.6,71.7,988.9,128.6,2.6,7.5,120.2,0.00,24.0,26.8,"04:34:24",1
"19/08/15","04:50",0.0,29.6,71.6,988.2,130.6,2.5,5.6,138.2,0.00,24.0,26.8,"04:49:44",1
"19/08/15","05:00",0.0,29.6,71.5,988.0,122.6,2.5,5.5,84.0,0.00,23.9,26.8,"04:57:28",1
"19/08/15","05:10",0.0,29.7,71.4,987.8,119.6,2.2,7.4,104.6,0.00,24.0,26.9,"05:05:36",1
"19/08/15","05:20",0.0,29.7,71.2,988.0,114.4,2.5,6.8,94.4,0.00,24.0,26.8,"05:11:12",1
"19/08/15","05:30",0.0,29.7,71.2,987.8,129.4,2.6,5.9,141.9,0.00,24.0,27.0,"05:23:28",1
"19/08/15","05:40",0.0,29.7,71.2,987.5,119.1,2.1,4.0,153.1,0.00,24.0,26.7,"05:32:56",1
"19/08/15","05:50",0.0,29.8,71.0,987.8,124.5,2.7,5.7,104.1,0.00,24.0,27.0,"05:44:56",1
"19/08/15","06:00",0.0,29.8,71.0,988.0,128.4,2.8,6.4,136.3,0.00,24.0,27.0,"05:53:20",1
"19/08/15","06:10",0.0,29.8,71.1,987.5,126.2,2.7,8.6,118.2,0.01,24.0,26.9,"06:04:48",1
"19/08/15","06:20",0.0,29.7,71.4,987.8,120.4,2.2,6.6,132.8,0.01,24.0,26.9,"06:19:20",1
"19/08/15","06:30",0.0,29.6,71.7,987.8,136.2,3.0,7.0,131.7,0.00,24.0,26.7,"06:22:16",1
"19/08/15","06:40",0.0,29.6,71.6,987.5,129.5,2.3,8.3,154.6,0.00,24.0,27.0,"06:30:02",1
"19/08/15","06:50",0.0,29.6,71.4,987.5,119.3,2.6,7.9,145.1,0.00,23.9,27.0,"06:48:08",1
"19/08/15","07:00",0.0,29.7,71.1,987.5,125.7,2.8,7.2,141.5,0.00,23.9,26.8,"06:59:20",1
"19/08/15","07:10",0.0,29.6,71.2,987.5,122.0,1.8,4.9,171.5,0.00,23.9,26.9,"07:00:56",1
"19/08/15","07:20",0.0,29.5,72.2,987.3,112.2,2.5,5.8,159.2,0.00,24.0,27.1,"07:19:04",1
"19/08/15","07:30",0.0,29.5,72.6,987.3,103.9,2.2,5.5,125.8,0.00,24.1,26.9,"07:28:56",1
"19/08/15","07:40",0.0,29.6,72.6,986.8,116.6,2.1,5.0,114.9,0.00,24.2,26.7,"07:38:48",1
"19/08/15","07:50",0.0,29.7,72.1,987.3,107.4,2.3,5.7,127.8,0.01,24.2,26.9,"07:44:08",1
"19/08/15","08:00",0.0,29.8,71.9,986.8,98.4,2.3,5.9,86.6,0.02,24.2,26.9,"07:57:20",1
"19/08/15","08:10",0.0,29.8,71.9,986.6,118.3,3.0,8.2,158.0,0.03,24.2,27.0,"08:05:28",1
"19/08/15","08:20",0.0,29.7,72.0,986.1,110.4,3.1,8.3,124.7,0.02,24.2,27.1,"08:15:36",1
"19/08/15","08:30",0.0,29.7,72.2,985.9,115.3,2.7,7.4,103.3,0.03,24.2,26.9,"08:22:40",1
"19/08/15","08:40",0.0,29.7,73.6,985.9,106.3,2.6,7.9,143.9,0.08,24.5,27.1,"08:35:36",1
"19/08/15","08:50",0.0,30.4,71.5,986.1,104.7,2.2,4.1,104.6,0.25,24.7,26.9,"08:43:36",1
"19/08/15","09:00",0.0,30.1,71.7,986.3,109.9,2.5,10.1,50.1,0.06,24.5,27.1,"08:50:02",1
"19/08/15","09:10",0.0,29.9,72.8,986.3,113.1,2.3,5.2,166.8,0.04,24.5,27.2,"09:01:52",1
"19/08/15","09:20",0.0,30.0,72.3,986.6,118.2,2.5,5.5,195.8,0.04,24.5,27.2,"09:19:12",1
"19/08/15","09:30",0.0,30.1,71.7,986.3,112.4,2.7,8.5,150.3,0.05,24.5,27.2,"09:24:16",1
"19/08/15","09:40",0.0,30.1,71.6,986.3,106.6,2.2,5.5,61.2,0.06,24.4,27.2,"09:37:20",1
"19/08/15","09:50",0.0,30.2,71.3,986.3,115.5,2.1,5.1,131.1,0.06,24.5,27.3,"09:47:12",1
"19/08/15","10:00",0.0,29.9,72.5,985.6,113.0,2.5,6.3,112.5,0.05,24.5,27.3,"09:50:56",1
"19/08/15","10:10",0.0,30.0,72.6,985.6,117.9,2.5,7.4,121.0,0.07,24.6,27.3,"10:01:20",1
"19/08/15","10:20",0.0,30.1,71.7,985.4,119.6,2.6,6.6,98.8,0.06,24.5,27.3,"10:14:24",1
"19/08/15","10:30",0.0,30.2,71.8,985.9,119.1,2.5,6.8,99.2,0.06,24.6,27.3,"10:25:12",1
"19/08/15","10:40",0.0,30.3,71.5,985.9,110.9,2.5,6.5,101.2,0.09,24.6,27.3,"10:31:04",1
"19/08/15","10:50",0.0,30.7,70.6,985.9,120.0,2.7,5.4,165.2,0.14,24.8,27.1,"10:42:08",1
"19/08/15","11:00",0.0,31.2,69.5,985.9,121.6,2.6,4.3,116.1,0.18,25.0,27.5,"10:53:22",1
"19/08/15","11:10",0.0,31.4,68.8,985.9,129.0,2.5,5.5,150.0,0.20,25.0,27.4,"11:01:20",1
"19/08/15","11:20",0.0,31.3,68.2,985.6,126.7,2.8,6.6,133.8,0.15,24.8,27.8,"11:11:36",1
"19/08/15","11:30",0.0,31.3,67.5,985.6,131.3,3.0,6.0,180.0,0.12,24.6,27.8,"11:26:16",1
"19/08/15","11:40",0.0,31.5,66.4,985.6,146.6,3.1,6.8,144.3,0.17,24.5,27.7,"11:39:52",1
"19/08/15","11:50",0.0,32.3,64.9,985.4,144.8,3.4,7.3,151.2,0.33,24.9,27.8,"11:42:32",1
"19/08/15","12:00",0.0,31.9,64.4,985.6,137.8,4.1,8.2,172.5,0.33,24.4,28.0,"11:57:36",1
"19/08/15","12:10",0.0,31.7,65.0,985.4,138.9,3.5,7.3,156.4,0.22,24.3,28.2,"12:08:48",1
"19/08/15","12:20",0.0,31.7,65.2,985.9,140.7,3.2,8.5,121.0,0.24,24.4,28.4,"12:10:40",1
"19/08/15","12:30",0.2,29.5,72.8,985.2,135.5,3.4,9.5,158.4,0.08,24.1,28.1,"12:26:32",1
"19/08/15","12:40",0.2,29.6,77.6,984.7,140.3,3.0,6.3,152.8,0.21,25.3,27.8,"12:36:32",1
"19/08/15","12:50",0.0,30.0,74.1,984.2,124.8,2.3,6.0,140.1,0.11,24.9,28.0,"12:49:04",1
"19/08/15","13:00",0.0,30.3,72.0,984.0,131.9,3.0,7.8,83.9,0.13,24.7,27.9,"12:56:32",1
"19/08/15","13:10",0.0,30.4,70.9,983.3,124.9,3.1,8.2,152.4,0.11,24.6,28.0,"13:08:00",1
"19/08/15","13:20",0.0,30.5,70.5,983.3,130.8,2.3,5.2,134.1,0.06,24.6,27.8,"13:19:20",1
"19/08/15","13:30",0.0,30.3,71.2,982.8,121.9,2.5,6.4,161.6,0.05,24.5,27.9,"13:20:40",1
"19/08/15","13:40",0.0,30.3,71.6,982.6,124.3,2.7,8.9,75.2,0.04,24.6,27.8,"13:34:16",1
"19/08/15","13:50",0.0,30.4,71.4,982.8,135.3,2.2,5.9,133.4,0.04,24.7,27.7,"13:49:44",1
"19/08/15","14:00",0.0,30.3,71.6,982.6,127.6,2.1,5.6,166.6,0.03,24.6,27.7,"13:55:12",1
"19/08/15","14:10",0.0,30.3,71.5,982.8,119.6,2.3,5.1,135.2,0.05,24.6,27.7,"14:04:32",1
"19/08/15","14:20",0.0,30.3,71.4,982.6,128.8,2.3,6.7,125.6,0.03,24.6,27.7,"14:10:48",1
"19/08/15","14:30",0.0,30.4,71.1,982.6,123.3,2.3,5.9,135.2,0.05,24.6,27.7,"14:25:36",1
"19/08/15","14:40",0.0,30.8,70.0,982.1,118.1,2.0,4.9,79.2,0.12,24.7,27.6,"14:33:52",1
"19/08/15","14:50",0.0,30.3,71.7,981.8,118.7,1.8,6.3,110.7,0.06,24.7,27.6,"14:49:52",1
"19/08/15","15:00",0.0,30.2,72.6,981.6,106.6,2.0,5.7,86.3,0.06,24.8,27.6,"14:51:12",1
"19/08/15","15:10",0.0,30.3,72.3,981.6,131.8,2.5,5.5,133.3,0.06,24.8,27.6,"15:06:48",1
"19/08/15","15:20",0.0,30.1,72.8,981.1,122.7,2.5,5.7,128.4,0.04,24.7,27.4,"15:13:44",1
"19/08/15","15:30",0.0,30.3,72.4,981.1,121.7,2.5,5.5,99.0,0.05,24.8,27.4,"15:26:56",1
"19/08/15","15:40",0.0,30.5,72.0,981.1,127.2,2.3,6.3,126.0,0.08,24.9,27.6,"15:38:16",1
"19/08/15","15:50",0.0,30.6,72.0,980.7,104.4,2.5,7.2,95.7,0.10,25.0,27.4,"15:46:32",1
"19/08/15","16:00",0.0,30.7,71.8,980.2,110.6,2.3,5.1,139.1,0.13,25.1,27.6,"15:54:00",1
"19/08/15","16:10",0.0,30.6,71.5,980.4,121.6,2.8,7.9,145.5,0.13,24.9,27.5,"16:00:24",1
"19/08/15","16:20",0.0,30.8,70.8,980.4,107.7,3.2,6.7,153.3,0.13,24.9,27.7,"16:14:48",1
"19/08/15","16:30",0.0,30.6,70.9,980.4,117.1,3.1,6.3,139.0,0.07,24.8,27.7,"16:22:24",1
"19/08/15","16:40",0.0,30.3,72.0,980.4,104.9,2.2,5.0,173.2,0.04,24.7,27.5,"16:33:04",1
"19/08/15","16:50",0.0,30.0,73.5,979.7,99.6,2.1,5.8,120.7,0.01,24.8,27.7,"16:42:56",1
"19/08/15","17:00",0.0,29.8,75.2,979.5,107.5,2.1,5.9,109.6,0.05,25.0,27.5,"16:57:04",1
"19/08/15","17:10",0.2,29.5,76.9,979.0,104.7,2.1,6.7,86.5,0.02,25.1,27.3,"17:04:16",1
"19/08/15","17:20",0.0,28.8,79.4,979.5,113.5,2.1,5.2,86.5,0.00,24.9,27.3,"17:17:52",1
"19/08/15","17:30",0.2,28.5,81.3,980.2,93.7,1.7,5.4,124.6,0.00,25.0,27.3,"17:26:40",1
"19/08/15","17:40",0.2,28.3,82.6,980.0,109.8,1.8,4.4,118.3,0.00,25.1,27.1,"17:38:56",1
"19/08/15","17:50",0.0,28.2,83.3,979.7,104.3,1.5,3.3,79.9,0.00,25.1,27.2,"17:40:56",1
"19/08/15","18:00",0.0,28.3,83.3,979.7,112.6,1.7,3.6,145.8,0.01,25.2,27.1,"17:54:24",1
"19/08/15","18:10",0.0,28.5,82.7,979.5,110.6,1.8,5.2,122.0,0.00,25.3,27.2,"18:04:00",1
"19/08/15","18:20",0.0,28.6,82.2,979.2,113.6,1.6,4.2,98.4,0.00,25.3,27.1,"18:13:52",1
"19/08/15","18:30",0.2,28.7,81.9,979.5,117.2,1.6,4.3,117.7,0.00,25.3,27.1,"18:24:16",1
"19/08/15","18:40",0.8,28.2,83.1,979.5,114.8,1.6,4.1,108.4,0.00,25.1,26.9,"18:32:56",1
"19/08/15","18:50",0.6,27.9,84.7,979.0,106.4,1.6,4.3,80.3,0.00,25.1,27.1,"18:46:32",1
"19/08/15","19:00",1.4,27.6,85.8,979.2,106.5,1.5,3.5,126.4,0.00,25.0,27.0,"18:59:44",1
"19/08/15","19:10",2.4,27.5,86.8,980.4,119.3,1.3,3.5,73.5,0.00,25.1,26.8,"19:04:32",1
"19/08/15","19:20",3.2,27.3,87.7,980.2,126.4,1.2,4.0,125.2,0.00,25.1,26.7,"19:15:46",1
"19/08/15","19:30",2.0,27.0,88.4,980.2,114.1,1.2,2.6,100.0,0.00,25.0,26.6,"19:29:38",1
"19/08/15","19:40",1.6,26.9,88.8,980.4,137.9,2.0,4.2,142.1,0.00,24.9,26.6,"19:39:12",1
"19/08/15","19:50",0.8,26.9,89.2,980.9,137.7,1.2,3.6,100.6,0.00,25.0,26.4,"19:47:52",1
"19/08/15","20:00",1.2,26.8,89.6,980.9,123.0,1.2,3.3,110.4,0.00,25.0,26.4,"19:55:52",1
"19/08/15","20:10",0.6,26.7,90.1,981.4,116.5,0.5,1.9,166.0,0.00,25.0,26.4,"20:01:20",1
"19/08/15","20:20",0.4,26.7,90.3,981.6,161.1,0.6,1.8,139.6,0.00,25.0,26.6,"20:13:12",1
"19/08/15","20:30",0.6,26.6,90.5,981.6,123.4,0.6,1.8,173.6,0.00,25.0,26.5,"20:28:56",1
"19/08/15","20:40",0.6,26.5,90.6,981.4,112.5,1.2,2.8,99.2,0.00,24.9,26.6,"20:32:24",1
"19/08/15","20:50",0.6,26.5,90.9,981.4,140.1,0.8,2.1,150.3,0.00,24.9,26.6,"20:46:48",1
"19/08/15","21:00",0.8,26.4,91.1,981.6,119.0,0.2,1.0,81.3,0.00,24.9,26.5,"20:50:08",1
"19/08/15","21:10",1.4,26.5,91.4,981.6,353.4,0.3,1.0,0.7,0.00,25.0,26.5,"21:08:32",1
"19/08/15","21:20",3.0,26.4,91.7,981.6,284.9,0.3,0.8,192.0,0.00,25.0,26.4,"21:14:24",1
"19/08/15","21:30",4.0,26.4,91.9,981.6,105.5,0.5,1.7,132.6,0.00,25.0,26.5,"21:29:04",1
"19/08/15","21:40",1.6,26.3,92.1,981.6,109.0,0.5,1.3,85.4,0.00,25.0,26.2,"21:33:36",1
"19/08/15","21:50",1.2,26.3,92.2,981.6,109.2,0.8,2.2,134.4,0.00,25.0,26.5,"21:48:16",1
"19/08/15","22:00",3.2,26.3,92.5,981.6,134.2,0.8,3.2,144.8,0.00,25.0,26.3,"21:58:32",1
"19/08/15","22:10",4.2,26.3,92.7,981.8,145.3,1.3,2.7,131.1,0.00,25.1,26.2,"22:06:08",1
"19/08/15","22:20",5.8,26.2,92.8,981.4,154.9,1.2,3.9,192.0,0.00,25.0,26.1,"22:17:46",1
"19/08/15","22:30",3.4,26.2,93.0,981.8,131.6,1.0,3.1,130.7,0.00,25.0,25.9,"22:28:48",1
"19/08/15","22:40",3.6,26.2,93.1,981.8,160.4,1.6,4.9,142.4,0.00,25.0,25.8,"22:30:08",1
"19/08/15","22:50",3.6,26.2,93.3,981.6,163.7,1.3,2.9,124.4,0.00,25.1,26.1,"22:40:16",1
"19/08/15","23:00",3.6,26.1,93.4,982.1,185.0,1.2,2.8,198.3,0.00,25.0,25.9,"22:52:16",1
"19/08/15","23:10",2.8,26.1,93.7,982.3,214.5,0.6,1.6,97.3,0.00,25.0,26.0,"23:04:48",1
"19/08/15","23:20",3.4,26.1,93.6,982.8,198.1,2.0,4.7,162.4,0.00,25.0,25.8,"23:16:24",1
"19/08/15","23:30",1.8,26.1,93.8,982.6,171.3,1.8,4.5,211.0,0.00,25.1,25.8,"23:23:36",1
"19/08/15","23:40",1.2,26.1,93.8,982.8,171.8,2.3,5.1,184.8,0.00,25.1,25.8,"23:30:40",1
"19/08/15","23:50",1.0,26.2,93.9,983.0,161.1,2.3,5.6,159.8,0.00,25.2,25.9,"23:45:12",1
"19/08/15","24:00",1.0,26.2,93.8,983.0,157.4,2.3,5.2,130.0,0.00,25.2,26.0,"23:56:00",1
